Home > Weather > Worms > Past weeks

Flag for Germany Weather for the Past 2 Weeks in Worms, Rhineland-Palatinate, Germany

Now
52 °F

Broken clouds.


Feels Like: 47 °F
Forecast: 37 / 43 °F
Wind: 13 mph from South

Location: Mannheim City

Current Time: Feb 9, 2016 at 3:15:16 PM

Latest Report: Feb 9, 2016 at 1:50 PM


Visibility: N/A

Pressure: 29.21 "Hg

Humidity: 82%

Dew point: 46 °F

Location of WormsLocation

Historic Weather in Worms — Graph

°F

Worms Temperature Yesterday

Maximum temperature yesterday: 52 °F (at 12:20 PM)
Minimum temperature yesterday: 43 °F (at 5:50 PM)
Average temperature yesterday: 48 °F

High & Low Weather Summary for the Past Weeks

 TemperatureHumidityPressure
High59 °F (Jan 26, 3:20 PM)100% (Jan 31, 8:50 AM)30.45 "Hg (Jan 31, 8:50 AM)
Low37 °F (Jan 29, 7:50 AM)50% (Jan 29, 1:50 PM)29.21 "Hg (Feb 9, 1:50 PM)
Average48 °F75%30.08 "Hg
* Reported Jan 25 1:20 PM — Feb 9 1:50 PM, Worms, Weather by CustomWeather, © 2016

Note: Actual official high and low records may vary slightly from our data, if they occured in-between our weather recording intervals... More about our weather records

Advertising

Worms Weather History for the Previous 24 Hours

 ConditionsComfort  
Time TempWeatherWind HumidityBarometerVisibility
1:50 PM
Tue, Feb 9
52 °FBroken clouds.13 mph82%29.21 "HgN/A
1:20 PM50 °FLight rain. Broken clouds.9 mph94%29.24 "HgN/A
12:50 PM48 °FLight rain. Partly sunny.13 mph94%29.27 "HgN/A
12:20 PM46 °FLight rain. Partly sunny.12 mph100%29.33 "HgN/A
11:50 AM45 °FLight rain. Partly sunny.13 mph100%29.36 "Hg4 mi
10:50 AM45 °FLight rain. Partly sunny.6 mph100%29.45 "Hg6 mi
10:20 AM45 °FLight rain. Broken clouds.7 mph93%29.47 "HgN/A
9:50 AM46 °FLight rain. Mostly cloudy.7 mph82%29.50 "Hg6 mi
8:50 AM46 °FPartly sunny.12 mph82%29.53 "HgN/A
8:20 AM45 °FBroken clouds.12 mph81%29.56 "HgN/A
7:50 AM45 °FPartly sunny.8 mph81%29.59 "HgN/A
7:20 AM45 °FPassing clouds.8 mph81%29.59 "HgN/A
6:50 AM45 °FPassing clouds.9 mph81%29.62 "HgN/A
6:20 AM46 °FPassing clouds.9 mph76%29.62 "HgN/A
5:50 AM46 °FLight rain. Passing clouds.9 mph76%29.65 "HgN/A
8:50 PM
Mon, Feb 8
45 °FPassing clouds.12 mph71%29.62 "HgN/A
8:20 PM46 °FPartly cloudy.14 mph66%29.62 "HgN/A
7:50 PM46 °FScattered showers. Passing clouds.18 mph71%29.62 "HgN/A
7:20 PM46 °FPassing clouds.12 mph66%29.59 "HgN/A
6:50 PM46 °FPassing clouds.12 mph66%29.59 "HgN/A
6:20 PM45 °FPassing clouds.9 mph76%29.59 "HgN/A
5:50 PM43 °FScattered showers. Partly cloudy.24 mph100%29.62 "HgN/A
5:20 PM48 °FSprinkles. Partly sunny.9 mph71%29.56 "HgN/A
4:50 PM48 °FScattered clouds.10 mph76%29.53 "HgN/A
4:20 PM46 °FScattered showers. Broken clouds.12 mph87%29.56 "HgN/A
3:50 PM48 °FScattered showers. Scattered clouds.13 mph76%29.50 "HgN/A
3:20 PM46 °FScattered showers. Broken clouds.15 mph82%29.50 "HgN/A
Weather by CustomWeather, © 2016

See weather overviewHow to use our weather pages